Zurück zum Katalog

COSMOS 980

AktivMilitärLEO
NORAD 10587·PAYLOAD·🇷🇺 Russia

Gestartet Jan 10, 1978 von Plesetsk Cosmodrome

Loading…

Nächste Überflüge (nächste 24 Stunden)

TLE

AktuellSource: Space-Track

Epoche: Sep 14, 2026, 09:56 UTC

1 10587U 78005E   26257.41452711 -.00000022  00000-0 -40707-4 0  9996
2 10587  74.0275 259.5836 0008798 270.2128 159.3762 12.48950085213898

Verfolge COSMOS 980 in Echtzeit mit AllMySat

Download on the App Store